Home > Weather > Raleigh > Past weeks

Flag for USA Weather for the Past 2 Weeks in Raleigh, North Carolina, USA

Now
61 °F

Passing clouds.


Feels Like: 61 °F
Forecast: 55 / 75 °F
Wind: 3 mph from North

Location: Raleigh-Durham International Airport

Current Time: May 4, 2016 at 4:44:07 AM

Latest Report: May 4, 2016 at 3:51 AM


Visibility: 10 mi

Pressure: 29.69 "Hg

Humidity: 90%

Dew Point: 58 °F

Location of RaleighLocation

Historic Weather in Raleigh — Graph

°F

Raleigh Temperature Yesterday

Maximum temperature yesterday: 78 °F (at 3:51 PM)
Minimum temperature yesterday: 64 °F (at 5:51 AM)
Average temperature yesterday: 68 °F

High & Low Weather Summary for the Past Weeks

 TemperatureHumidityPressure
High88 °F (Apr 19, 2:51 PM)100% (Apr 30, 6:55 AM)30.25 "Hg (Apr 30, 6:55 AM)
Low51 °F (Apr 24, 5:51 AM)16% (Apr 19, 3:51 PM)29.70 "Hg (May 4, 2:51 AM)
Average68 °F71%29.98 "Hg
* Reported Apr 19 2:51 AM — May 4 2:51 AM, Raleigh, Weather by CustomWeather, © 2016

Note: Actual official high and low records may vary slightly from our data, if they occured in-between our weather recording intervals... More about our weather records

Advertising

Raleigh Weather History for the Previous 24 Hours

Scroll right to see more
 ConditionsComfort  
Time TempWeatherWind HumidityBarometerVisibility
2:51 AM
Wed, May 4
62 °FPassing clouds.No wind93%29.70 "Hg10 mi
2:04 AM63 °FFog.No wind94%29.73 "Hg6 mi
12:51 AM64 °FFog.6 mph97%29.74 "Hg1 mi
11:51 PM
Tue, May 3
64 °FLight rain. Fog.8 mph97%29.75 "Hg5 mi
10:51 PM64 °FPartly cloudy.No wind97%29.75 "Hg10 mi
9:51 PM65 °FThunderstorms. Partly cloudy.3 mph94%29.75 "Hg7 mi
8:51 PM65 °FPartly sunny.No wind94%29.75 "Hg10 mi
7:51 PM66 °FBroken clouds.No wind93%29.72 "Hg10 mi
6:51 PM66 °FBroken clouds.6 mph90%29.72 "Hg10 mi
6:03 PM68 °FHail. Fog.7 mph88%29.74 "Hg5 mi
5:51 PM68 °FThunderstorms. Fog.3 mph84%29.73 "Hg5 mi
4:51 PM76 °FLight rain. Partly sunny.9 mph64%29.72 "Hg10 mi
3:51 PM78 °FPartly sunny.6 mph60%29.74 "Hg10 mi
2:51 PM74 °FBroken clouds.6 mph71%29.78 "Hg10 mi
1:51 PM73 °FBroken clouds.6 mph74%29.78 "Hg10 mi
12:51 PM73 °FPartly sunny.9 mph79%29.81 "Hg10 mi
11:51 AM69 °FMostly cloudy.10 mph87%29.83 "Hg10 mi
10:51 AM68 °FMostly cloudy.8 mph90%29.82 "Hg10 mi
9:51 AM66 °FLight rain. Cloudy.6 mph96%29.84 "Hg8 mi
8:51 AM66 °FLight rain. Mostly cloudy.6 mph93%29.84 "Hg7 mi
7:51 AM65 °FLight rain. Fog.5 mph94%29.84 "Hg6 mi
6:51 AM64 °FLight rain. Fog.No wind97%29.83 "Hg5 mi
5:51 AM64 °FLight rain. Mostly cloudy.No wind97%29.84 "Hg7 mi
4:51 AM65 °FLight rain. Mostly cloudy.No wind94%29.85 "Hg9 mi
Weather by CustomWeather, © 2016

See weather overviewHow to use our weather pages